| time (UTC) | temp C | wind direction | speed KPH | gust KPH | rain 1hr cm | rain 24hr cm | rain mn cm | humidity % | barometer mb |
| 20260904234548 | 26 | 249 | 1.6 | 11.3 | 0.00 | 0.30 | 0.18 | 39 | 1012.3 |
| 20260904233101 | 25 | 0 | 1.6 | 6.4 | 0.00 | 0.30 | 0.18 | 39 | 1012.3 |
| 20260904231553 | 26 | 189 | 3.2 | 8.0 | 0.00 | 0.30 | 0.18 | 40 | 1012.5 |
| 20260904230045 | 26 | 209 | 0.0 | 8.0 | 0.00 | 0.30 | 0.18 | 39 | 1012.5 |
| 20260904224556 | 25 | 211 | 3.2 | 16.1 | 0.00 | 0.30 | 0.18 | 43 | 1012.7 |
| 20260904223101 | 26 | 107 | 1.6 | 12.9 | 0.00 | 0.30 | 0.18 | 40 | 1012.9 |
| 20260904221545 | 26 | 0 | 3.2 | 9.7 | 0.00 | 0.30 | 0.18 | 43 | 1012.9 |
| 20260904220055 | 26 | 249 | 1.6 | 12.9 | 0.00 | 0.30 | 0.18 | 43 | 1012.9 |
| 20260904214547 | 26 | 0 | 0.0 | 11.3 | 0.00 | 0.30 | 0.18 | 46 | 1012.9 |
| 20260904213048 | 25 | 239 | 4.8 | 14.5 | 0.00 | 0.30 | 0.18 | 48 | 1012.9 |
| 20260904211546 | 24 | 170 | 1.6 | 14.5 | 0.00 | 0.30 | 0.18 | 47 | 1012.9 |
| 20260904210059 | 25 | 0 | 1.6 | 9.7 | 0.00 | 0.30 | 0.18 | 49 | 1012.9 |
| 20260904204549 | 23 | 182 | 1.6 | 12.9 | 0.00 | 0.30 | 0.18 | 52 | 1012.9 |
| 20260904203100 | 23 | 128 | 3.2 | 8.0 | 0.00 | 0.30 | 0.18 | 54 | 1013.0 |
| 20260904201549 | 23 | 119 | 1.6 | 9.7 | 0.00 | 0.30 | 0.18 | 53 | 1013.2 |
| 20260904200049 | 22 | 76 | 0.0 | 6.4 | 0.00 | 0.30 | 0.18 | 55 | 1013.3 |
| 20260904194543 | 22 | 103 | 1.6 | 9.7 | 0.00 | 0.30 | 0.18 | 56 | 1013.5 |
| 20260904193047 | 22 | 138 | 1.6 | 16.1 | 0.00 | 0.30 | 0.18 | 61 | 1013.6 |
| 20260904191553 | 21 | 112 | 1.6 | 11.3 | 0.00 | 0.30 | 0.18 | 59 | 1013.8 |
| 20260904190047 | 22 | 95 | 1.6 | 9.7 | 0.00 | 0.30 | 0.18 | 58 | 1013.7 |
| 20260904184541 | 21 | 146 | 1.6 | 11.3 | 0.00 | 0.30 | 0.18 | 62 | 1013.8 |
| 20260904183050 | 21 | 0 | 1.6 | 6.4 | 0.00 | 0.30 | 0.18 | 65 | 1013.8 |
| 20260904181544 | 20 | 98 | 1.6 | 9.7 | 0.00 | 0.30 | 0.18 | 68 | 1013.8 |
| 20260904180042 | 19 | 0 | 3.2 | 11.3 | 0.00 | 0.30 | 0.18 | 71 | 1013.8 |
| 20260904174550 | 18 | 117 | 0.0 | 9.7 | 0.00 | 0.30 | 0.18 | 74 | 1013.8 |
| 20260904173053 | 18 | 109 | 1.6 | 9.7 | 0.00 | 0.30 | 0.18 | 76 | 1013.7 |
| 20260904171542 | 18 | 0 | 1.6 | 12.9 | 0.00 | 0.30 | 0.18 | 76 | 1013.7 |
| 20260904170045 | 18 | 0 | 1.6 | 11.3 | 0.00 | 0.30 | 0.18 | 77 | 1013.5 |
| 20260904164549 | 17 | 109 | 3.2 | 11.3 | 0.00 | 0.30 | 0.18 | 80 | 1013.4 |
| 20260904163049 | 17 | 136 | 3.2 | 12.9 | 0.00 | 0.30 | 0.18 | 85 | 1013.3 |
| 20260904161543 | 16 | 124 | 3.2 | 8.0 | 0.00 | 0.30 | 0.18 | 91 | 1013.3 |
| 20260904160052 | 15 | 108 | 3.2 | 9.7 | 0.00 | 0.30 | 0.18 | 92 | 1013.2 |
| 20260904154548 | 15 | 134 | 1.6 | 4.8 | 0.00 | 0.30 | 0.18 | 92 | 1013.1 |
| 20260904153044 | 15 | 136 | 1.6 | 4.8 | 0.00 | 0.30 | 0.18 | 92 | 1013.1 |
| 20260904151544 | 15 | 140 | 0.0 | 3.2 | 0.00 | 0.30 | 0.18 | 92 | 1013.0 |
| 20260904150051 | 15 | 0 | 0.0 | 4.8 | 0.00 | 0.30 | 0.18 | 93 | 1012.9 |
| 20260904144605 | 15 | 0 | 0.0 | 4.8 | 0.00 | 0.30 | 0.18 | 92 | 1012.8 |
| 20260904143055 | 15 | 139 | 0.0 | 6.4 | 0.00 | 0.30 | 0.18 | 92 | 1012.6 |
| 20260904141542 | 15 | 0 | 1.6 | 6.4 | 0.00 | 0.30 | 0.18 | 92 | 1012.3 |
| 20260904140049 | 15 | 0 | 0.0 | 0.0 | 0.00 | 0.30 | 0.18 | 92 | 1012.1 |
| 20260904134549 | 15 | 0 | 0.0 | 0.0 | 0.00 | 0.30 | 0.18 | 92 | 1011.9 |
| 20260904133046 | 15 | 0 | 0.0 | 3.2 | 0.00 | 0.30 | 0.18 | 92 | 1011.7 |
| 20260904131540 | 15 | 115 | 0.0 | 6.4 | 0.00 | 0.30 | 0.18 | 92 | 1011.6 |
| 20260904130048 | 15 | 109 | 0.0 | 6.4 | 0.00 | 0.30 | 0.18 | 92 | 1011.6 |
| 20260904124543 | 15 | 0 | 0.0 | 4.8 | 0.00 | 0.30 | 0.18 | 92 | 1011.5 |
| 20260904123041 | 15 | 0 | 0.0 | 1.6 | 0.00 | 0.28 | 0.15 | 92 | 1011.5 |
| 20260904121541 | 15 | 0 | 0.0 | 3.2 | 0.00 | 0.28 | 0.15 | 92 | 1011.4 |
| 20260904120048 | 15 | 0 | 0.0 | 3.2 | 0.00 | 0.28 | 0.15 | 92 | 1011.3 |
| 20260904114543 | 15 | 0 | 0.0 | 0.0 | 0.00 | 0.28 | 0.15 | 92 | 1011.2 |
| 20260904113041 | 15 | 0 | 0.0 | 0.0 | 0.00 | 0.28 | 0.15 | 92 | 1011.2 |
| 20260904111550 | 15 | 0 | 0.0 | 3.2 | 0.00 | 0.28 | 0.15 | 92 | 1011.2 |
| 20260904110043 | 16 | 0 | 0.0 | 1.6 | 0.00 | 0.28 | 0.15 | 92 | 1011.1 |
| 20260904104544 | 16 | 0 | 0.0 | 0.0 | 0.00 | 0.28 | 0.15 | 92 | 1011.1 |
| 20260904103040 | 16 | 0 | 0.0 | 0.0 | 0.00 | 0.28 | 0.13 | 92 | 1011.0 |
| 20260904101541 | 16 | 0 | 0.0 | 4.8 | 0.00 | 0.28 | 0.13 | 92 | 1010.9 |
| 20260904100042 | 16 | 0 | 0.0 | 0.0 | 0.00 | 0.28 | 0.13 | 92 | 1010.9 |
| 20260904094542 | 16 | 0 | 0.0 | 4.8 | 0.03 | 0.28 | 0.13 | 92 | 1010.8 |
| 20260904093048 | 16 | 0 | 0.0 | 0.0 | 0.05 | 0.28 | 0.13 | 92 | 1010.7 |
| 20260904091551 | 16 | 0 | 0.0 | 0.0 | 0.05 | 0.25 | 0.10 | 92 | 1010.6 |
| 20260904090041 | 16 | 0 | 0.0 | 0.0 | 0.08 | 0.25 | 0.10 | 92 | 1010.8 |
| 20260904084541 | 16 | 0 | 0.0 | 6.4 | 0.08 | 0.23 | 0.08 | 92 | 1010.7 |
| 20260904083047 | 16 | 0 | 0.0 | 3.2 | 0.05 | 0.20 | 0.08 | 92 | 1010.9 |
| 20260904081542 | 16 | 254 | 0.0 | 3.2 | 0.05 | 0.18 | 0.05 | 92 | 1011.0 |
| 20260904080043 | 16 | 0 | 0.0 | 1.6 | 0.03 | 0.18 | 0.03 | 92 | 1010.8 |
| 20260904074557 | 16 | 0 | 0.0 | 3.2 | 0.00 | 0.15 | 0.00 | 92 | 1010.8 |
| 20260904073047 | 16 | 0 | 0.0 | 3.2 | 0.00 | 0.15 | 0.00 | 92 | 1010.8 |
| 20260904071609 | 16 | 0 | 0.0 | 0.0 | 0.00 | 0.13 | 0.00 | 92 | 1011.0 |
| 20260904070042 | 16 | 0 | 0.0 | 0.0 | 0.00 | 0.13 | 0.00 | 92 | 1010.9 |
| 20260904064601 | 16 | 0 | 0.0 | 0.0 | 0.00 | 0.13 | 0.13 | 91 | 1010.9 |
| 20260904063051 | 16 | 0 | 0.0 | 1.6 | 0.03 | 0.13 | 0.13 | 91 | 1011.0 |
| 20260904061540 | 16 | 0 | 0.0 | 0.0 | 0.10 | 0.13 | 0.13 | 91 | 1011.0 |
| 20260904060049 | 16 | 0 | 0.0 | 0.0 | 0.10 | 0.13 | 0.13 | 90 | 1010.9 |
| 20260904054544 | 17 | 0 | 0.0 | 0.0 | 0.13 | 0.13 | 0.13 | 89 | 1011.1 |
| 20260904053055 | 17 | 0 | 0.0 | 4.8 | 0.08 | 0.08 | 0.08 | 89 | 1011.1 |
| 20260904051542 | 17 | 0 | 0.0 | 0.0 | 0.00 | 0.00 | 0.00 | 88 | 1011.2 |
| 20260904050047 | 17 | 0 | 0.0 | 0.0 | 0.00 | 0.00 | 0.00 | 88 | 1011.2 |
| 20260904044546 | 17 | 0 | 0.0 | 0.0 | 0.00 | 0.00 | 0.00 | 87 | 1011.1 |
| 20260904043048 | 17 | 0 | 0.0 | 0.0 | 0.00 | 0.00 | 0.00 | 86 | 1011.2 |
| 20260904041544 | 17 | 0 | 0.0 | 0.0 | 0.00 | 0.00 | 0.00 | 84 | 1011.2 |
| 20260904040049 | 17 | 0 | 0.0 | 0.0 | 0.00 | 0.00 | 0.00 | 82 | 1011.1 |
| 20260904034541 | 18 | 0 | 0.0 | 0.0 | 0.00 | 0.00 | 0.00 | 79 | 1011.1 |
| 20260904033057 | 18 | 0 | 0.0 | 1.6 | 0.00 | 0.00 | 0.00 | 77 | 1010.9 |
| 20260904031553 | 18 | 0 | 0.0 | 6.4 | 0.00 | 0.00 | 0.00 | 75 | 1010.8 |
| 20260904030043 | 19 | 0 | 0.0 | 17.7 | 0.00 | 0.00 | 0.00 | 73 | 1010.8 |
| 20260904024543 | 20 | 235 | 3.2 | 16.1 | 0.00 | 0.00 | 0.00 | 73 | 1010.8 |
| 20260904023049 | 20 | 200 | 0.0 | 6.4 | 0.00 | 0.00 | 0.00 | 72 | 1010.8 |
| 20260904021550 | 20 | 200 | 3.2 | 8.0 | 0.00 | 0.00 | 0.00 | 72 | 1010.7 |
| 20260904020043 | 20 | 198 | 0.0 | 8.0 | 0.00 | 0.00 | 0.00 | 71 | 1010.8 |
| 20260904014544 | 21 | 198 | 1.6 | 9.7 | 0.00 | 0.00 | 0.00 | 70 | 1010.9 |
| 20260904013041 | 21 | 0 | 1.6 | 9.7 | 0.00 | 0.00 | 0.00 | 69 | 1011.0 |
| 20260904011543 | 21 | 187 | 3.2 | 12.9 | 0.00 | 0.00 | 0.00 | 68 | 1011.0 |
| 20260904010052 | 21 | 184 | 3.2 | 12.9 | 0.00 | 0.00 | 0.00 | 67 | 1011.2 |
| 20260904004544 | 21 | 0 | 4.8 | 12.9 | 0.00 | 0.00 | 0.00 | 66 | 1011.3 |
| 20260904003049 | 22 | 213 | 3.2 | 14.5 | 0.00 | 0.00 | 0.00 | 66 | 1011.2 |
| 20260904001546 | 22 | 221 | 4.8 | 16.1 | 0.00 | 0.00 | 0.00 | 65 | 1011.1 |
| 20260904000043 | 22 | 207 | 4.8 | 14.5 | 0.00 | 0.00 | 0.00 | 65 | 1011.2 |